DW0487 Weather Reports


Display with metric or nautical units.
time (UTC)temp
F
wind
direction
speed
MPH
gust
MPH
rain 1hr
in
rain 24hr
in
rain mn
in
humidity
%
barometer
mb
20260510170128 65 157 8.0 15.0 0.00 0.00 0.00 46 1005.9
20260510164528 65 219 1.0 6.0 0.00 0.00 0.00 53 1005.8
20260510163027 65 46 1.0 3.0 0.00 0.00 0.00 54 1005.8
20260510161526 66 63 2.0 6.0 0.00 0.00 0.00 52 1005.7
20260510160134 67 5 2.0 9.0 0.00 0.00 0.00 54 1005.7
20260510154550 68 28 5.0 9.0 0.00 0.01 0.00 53 1005.9
20260510153034 68 35 5.0 9.0 0.00 0.01 0.00 51 1005.9
20260510151534 68 34 4.0 8.0 0.00 0.01 0.00 51 1006.0
20260510150136 68 54 5.0 9.0 0.00 0.01 0.00 50 1006.0
20260510144538 69 56 3.0 11.0 0.00 0.02 0.00 50 1006.1
20260510143037 69 84 6.0 11.0 0.00 0.02 0.00 50 1006.1
20260510141525 69 24 5.0 11.0 0.00 0.02 0.00 48 1006.2
20260510140123 70 349 3.0 9.0 0.00 0.02 0.00 51 1006.1
20260510134532 72 33 4.0 8.0 0.00 0.02 0.00 44 1006.3
20260510133031 73 91 2.0 8.0 0.00 0.02 0.00 39 1006.4
20260510131535 73 204 3.0 11.0 0.00 0.02 0.00 37 1006.7
20260510130128 73 184 3.0 10.0 0.00 0.02 0.00 35 1006.8
20260510124601 73 148 5.0 11.0 0.00 0.02 0.00 35 1007.0
20260510123050 74 110 5.0 12.0 0.00 0.02 0.00 33 1007.2
20260510121546 73 162 5.0 12.0 0.00 0.02 0.00 38 1007.5
20260510120043 71 227 3.0 11.0 0.00 0.02 0.00 39 1007.6
20260510114544 71 158 4.0 10.0 0.00 0.02 0.00 39 1007.8
20260510113041 72 170 7.0 11.0 0.00 0.02 0.00 36 1008.0
20260510111540 73 179 7.0 14.0 0.00 0.02 0.00 36 1008.0
20260510110040 72 165 6.0 12.0 0.00 0.02 0.00 40 1008.3
20260510104537 72 179 6.0 14.0 0.00 0.04 0.00 36 1008.4
20260510103034 72 163 7.0 13.0 0.00 0.04 0.00 39 1008.8
20260510101533 72 153 7.0 12.0 0.00 0.04 0.00 41 1008.9
20260510100126 71 190 3.0 11.0 0.00 0.04 0.00 42 1009.2
20260510094546 70 221 5.0 12.0 0.00 0.04 0.00 42 1009.3
20260510093045 69 187 5.0 16.0 0.00 0.04 0.00 41 1009.4
20260510091536 68 167 4.0 11.0 0.00 0.04 0.00 45 1009.8
20260510090125 67 193 5.0 14.0 0.00 0.04 0.00 47 1010.0
20260510084543 65 179 6.0 14.0 0.00 0.04 0.00 49 1010.1
20260510083040 64 164 7.0 13.0 0.00 0.04 0.00 51 1010.2
20260510081535 63 202 8.0 11.0 0.00 0.04 0.00 54 1010.2
20260510080133 63 194 5.0 13.0 0.00 0.04 0.00 56 1010.4
20260510074547 61 157 5.0 12.0 0.00 0.04 0.00 62 1010.8
20260510073051 57 259 2.0 5.0 0.00 0.04 0.00 74 1010.8
20260510071557 54 17 2.0 8.0 0.00 0.04 0.00 77 1010.9
20260510070053 52 21 3.0 6.0 0.00 0.04 0.00 84 1011.0
20260510064547 49 34 3.0 5.0 0.00 0.04 0.00 93 1011.3
20260510063043 48 58 3.0 5.0 0.00 0.04 0.00 95 1011.4
20260510061540 45 355 3.0 5.0 0.00 0.04 0.00 95 1011.6
20260510060035 43 36 1.0 4.0 0.00 0.04 0.00 95 1011.8
20260510054532 41 40 2.0 4.0 0.00 0.04 0.00 95 1012.2
20260510053048 39 128 1.0 3.0 0.00 0.04 0.00 94 1012.3
20260510051527 38 103 0.0 0.0 0.00 0.04 0.00 94 1012.5
20260510050026 37 140 0.0 0.0 0.00 0.04 0.00 94 1012.5
20260510044523 37 280 0.0 3.0 0.00 0.06 0.00 94 1012.8
20260510043037 37 123 1.0 2.0 0.00 0.06 0.00 94 1012.8
20260510041526 37 113 0.0 3.0 0.00 0.06 0.00 93 1012.8
20260510040032 37 9 0.0 2.0 0.00 0.06 0.00 93 1012.9
20260510034516 37 342 0.0 2.0 0.00 0.06 0.00 93 1013.0
20260510033013 37 88 1.0 4.0 0.00 0.06 0.00 93 1013.0
20260510031515 37 157 0.0 0.0 0.00 0.06 0.00 93 1013.2
20260510030010 37 271 0.0 1.0 0.00 0.06 0.00 93 1013.2
20260510024508 38 59 0.0 2.0 0.00 0.09 0.00 93 1013.3
20260510023007 38 86 0.0 0.0 0.00 0.09 0.00 93 1013.4
20260510021519 39 272 0.0 2.0 0.00 0.09 0.00 93 1013.4
20260510014503 39 229 0.0 0.0 0.00 0.09 0.00 93 1013.4
20260510013001 40 134 0.0 0.0 0.00 0.09 0.00 93 1013.4
20260510011601 40 38 0.0 4.0 0.00 0.09 0.00 93 1013.4
20260510004601 39 67 0.0 3.0 0.00 0.09 0.00 92 1013.4
20260510003057 40 132 0.0 1.0 0.00 0.09 0.00 92 1013.5
20260510001554 40 74 0.0 1.0 0.00 0.09 0.00 91 1013.5
20260510000058 40 360 0.0 3.0 0.00 0.09 0.00 91 1013.8
20260509234551 40 136 0.0 2.0 0.00 0.09 0.00 91 1014.0
20260509233048 41 64 0.0 0.0 0.00 0.09 0.00 91 1014.4
20260509231546 41 185 0.0 2.0 0.00 0.09 0.00 91 1014.5
20260509230044 41 162 0.0 2.0 0.00 0.09 0.00 90 1014.5
20260509224543 42 267 0.0 0.0 0.00 0.09 0.00 89 1014.6
20260509223041 43 154 0.0 1.0 0.00 0.09 0.00 90 1014.6
20260509221539 43 200 0.0 2.0 0.00 0.09 0.00 89 1014.6
20260509220037 43 150 0.0 0.0 0.00 0.09 0.00 88 1014.7
20260509214547 44 101 0.0 0.0 0.00 0.09 0.09 89 1014.7
20260509213037 45 101 0.0 0.0 0.00 0.09 0.09 89 1014.7
20260509211536 45 97 1.0 3.0 0.00 0.09 0.09 88 1014.7
20260509210039 46 207 0.0 0.0 0.00 0.09 0.09 88 1014.7
20260509204536 47 207 0.0 0.0 0.00 0.09 0.09 87 1014.8
20260509203034 47 207 0.0 2.0 0.00 0.09 0.09 86 1014.6
20260509201534 48 223 1.0 2.0 0.00 0.09 0.09 84 1014.7
20260509200037 48 223 0.0 0.0 0.00 0.09 0.09 84 1014.8
20260509194533 49 237 1.0 3.0 0.00 0.09 0.09 82 1014.7
20260509193032 50 291 2.0 3.0 0.00 0.09 0.09 80 1014.5
20260509191539 51 223 3.0 4.0 0.00 0.09 0.09 79 1014.5
20260509190032 52 227 0.0 0.0 0.00 0.09 0.09 78 1014.3
20260509184543 52 227 1.0 3.0 0.00 0.09 0.09 76 1014.2
20260509183043 54 331 0.0 2.0 0.00 0.09 0.09 75 1013.7
20260509181527 55 328 1.0 4.0 0.00 0.09 0.09 71 1013.6
20260509180027 57 289 3.0 5.0 0.00 0.09 0.09 69 1013.6
20260509174527 58 280 3.0 6.0 0.00 0.09 0.09 69 1013.7
20260509173027 60 355 1.0 7.0 0.00 0.09 0.09 69 1013.7
20260509171525 61 288 2.0 4.0 0.00 0.09 0.09 72 1013.7